Location: Mallard Lake North
(41.9667°N, 88.3709°W)
Time: 11:25:16
(UTC+00:00)

S-56A Canister/Altair - Pass Details

Date: 23 December 2025
Orbit: 632 x 2486 km, 38.9° (Epoch: 20 January)

Event Time Altitude Azimuth Distance (km) Brightness Sun altitude
Rises 02:04:15 0° 270° (W) 3,027 11.5 -39.6°
Reaches altitude 10° 02:06:40 10° 265° (W) 2,038 10.4 -40.0°
Enters shadow 02:06:57 12° 265° (W) 1,927 10.2 -40.1°
